Вернуться в каталог

STARLINK-34642

АктивенСвязьVLEO
NORAD 64910·PAYLOAD·🇺🇸 United States

Запущен Jul 26, 2025 с Cape Canaveral Space Force Station

Loading…

Ближайшие Пролёты (ближайшие 24 часа)

TLE

СвежийSource: CelesTrak SupGP

Эпоха: Sep 15, 2026, 03:44 UTC

1 64910C 25157G   26258.15604167 -.00037854  00000+0 -12173-2 0  2585
2 64910  53.1584 183.8521 0001379  82.0038  34.4378 15.31720868    18

Отслеживайте STARLINK-34642 в реальном времени с AllMySat

Download on the App Store